Location: Peterborough
(44.3091°N, 78.3197°W)
Time: 08:58:31
(UTC-04:00)

A-11 Canister half - Pass Details

Date: 17 September 2024
Orbit: 1515 x 1684 km, 47.2° (Epoch: 02 October)

Event Time Altitude Azimuth Distance (km) Brightness Sun altitude
Rises 19:32:57 0° 238° (WSW) 4,751 12.5 -3.3°
Reaches altitude 10° 19:36:03 10° 237° (WSW) 3,747 11.9 -3.9°
Maximum altitude 19:45:28 77° 154° (SSE) 1,567 9.0 -5.5°
Drops below altitude 10° 19:54:42 10° 70° (ENE) 3,679 10.5 -7.2°
Enters shadow 19:57:02 - 69° (ENE) 4,434 10.9 -7.6°
